Location: Goettingen
(51.5300°N, 9.9433°E)
Time: 19:50:39
(UTC+02:00)

ISS - Pass Details

Date: 26 May 2018
Orbit: 402 x 407 km, 51.6° (Epoch: 25 May)

Event Time Altitude Azimuth Distance (km) Brightness Sun altitude
Rises 22:43:02 0° 262° (W) 2,319 0.4 -9.8°
Reaches altitude 10° 22:45:07 10° 262° (W) 1,459 -0.6 -10.0°
Maximum altitude 22:48:23 89° 170° (S) 409 -3.9 -10.3°
Drops below altitude 10° 22:51:40 10° 84° (E) 1,459 -1.3 -10.6°
Sets 22:53:45 0° 84° (E) 2,319 -0.3 -10.7°
Enters shadow 22:53:48 - 84° (E) 2,340 -0.2 -10.7°
